Volver al catálogo

TITAN 3C TRANSTAGE DEB

ActivoLEO
NORAD 1959·DEBRIS·🇺🇸 United States

Lanzado Oct 15, 1965 desde Cape Canaveral Space Force Station

Loading…

Próximos Pases (próximas 24 horas)

TLE

ActualizadoSource: Space-Track

Época: Sep 14, 2026, 03:41 UTC

1 01959U 65082GU  26257.15377032  .00000491  00000-0  90531-4 0  9991
2 01959  31.7892 205.4544 0062107 325.2932  34.3664 14.59101142226769

Sigue TITAN 3C TRANSTAGE DEB en tiempo real con AllMySat

Download on the App Store